Regional Weather Roundup
Issued by NWS Sioux Falls, SD

Home | Current Version | Previous Version | Graphics & Text | Print | Product List | Glossary Off
Versions: 1 2 3 4 5 6 7 8 9 10 11 12 13 14 15 16 17 18 19 20 21 22 23 24 25 26 27 28 29 30 31 32 33 34 35 36 37 38 39 40 41 42 43 44 45 46 47 48 49 50

000
ASUS43 KFSD 250310
RWRFSD

WEATHER ROUNDUP FOR SE SOUTH DAKOTA/SW MINNESOTA/NW IOWA
NATIONAL WEATHER SERVICE SIOUX FALLS SD
1000 PM CDT THU JUL 24 2014

NOTE: "FAIR" INDICATES FEW OR NO CLOUDS BELOW 12,000 FEET WITH NO
SIGNIFICANT WEATHER AND OR OBSTRUCTIONS TO VISIBILITY.


SDZ038>040-050-052>070-250400-
SOUTHEAST SOUTH DAKOTA

CITY           SKY/WX    TMP DP  RH WIND       PRES   REMARKS
CHAMBERLAIN    MOCLDY    81  69  67 SE15G26   29.68R
HURON          PTCLDY    71  63  75 SE15G24   29.71S
MADISON        FAIR      68  66  94 S13G20    29.81S
MITCHELL       MOCLDY    75  64  68 SE21G31   29.73F
SIOUX FALLS    MOCLDY    71  62  73 S15       29.81F
WINNER         FAIR      86  62  44 S24G35    29.64R
YANKTON        MOCLDY    73  63  68 SE16G24   29.79F
$$

MNZ071-072-080-081-089-090-097-098-250400-
SOUTHWEST MINNESOTA

CITY           SKY/WX    TMP DP  RH WIND       PRES   REMARKS
FAIRMONT       CLEAR     63  55  77 S6        29.92R
JACKSON        CLEAR     63  59  88 S7        29.92R
LUVERNE        PTCLDY    68  61  77 SE8       29.85F
MARSHALL       PTCLDY    66  57  72 S8        29.86S
MONTEVIDEO     CLOUDY    66  61  82 SE8       29.89S
PIPESTONE      PTCLDY    64  61  88 S8        29.86S
REDWOOD FALLS  CLOUDY    67  61  81 E7        29.91R
TRACY          MOCLDY    66  60  81 S8        29.88S
WINDOM         PTCLDY    64  59  82 S7        29.91S
WORTHINGTON    CLEAR     64  61  88 S7        29.90F
$$

IAZ001>003-012>014-020>022-031-032-NEZ013-014-SDZ071-250400-
NORTHWEST IOWA

CITY           SKY/WX    TMP DP  RH WIND       PRES   REMARKS
CHEROKEE       PTCLDY    68  63  82 S13G20    29.88S
DENISON        CLEAR     70  63  78 S15G24    29.89R
ESTHERVILLE    CLEAR     59  57  93 S7        29.92R
LE MARS        CLEAR     72  63  73 S12G21    29.85F
ORANGE CITY    CLEAR     70  61  73 S12       29.86F
SHELDON        CLEAR     66  63  88 SE8       29.86F
SIOUX CITY     PTCLDY    74  61  63 S15G29    29.84F
SPENCER        CLEAR     64  60  87 SE6       29.91R
STORM LAKE     PTCLDY    66  63  88 S13       29.91R
$$

ABBREVIATIONS USED IN REMARKS
   TC - TEMPERATURE IN CELSIUS
  WCI - WIND CHILL INDEX
   HX - HEAT INDEX
  VSB - VISIBILITY




USA.gov is the U.S. government's official web portal to all federal, state and local government web resources and services.